Weather History for Sheridan, WY

Change the Weather History Date:

Sunday, April 21, 2013

  Actual Average Record
Temperature  
Mean Temperature 35 °F 45 °F  
Max Temperature 44 °F 59 °F 86 °F (1989)
Min Temperature 26 °F 31 °F 4 °F (1927)
Degree Days  
Heating Degree Days 30 20  
Month to date heating degree days 596 475  
Since 1 July heating degree days 6875 6934  
Cooling Degree Days 0 0  
Month to date cooling degree days 0 0  
Year to date cooling degree days 0 0  
Moisture  
Dew Point 31 °F    
Average Humidity 83    
Maximum Humidity 100    
Minimum Humidity 65    
Precipitation  
Precipitation 0.70 in 0.06 in 0.70 in (2013)
Month to date precipitation 1.73 0.98  
Year to date precipitation 3.75 3.06  
Sea Level Pressure  
Sea Level Pressure 30.10 in    
Wind  
Wind Speed 8 mph (North)    
Max Wind Speed 24 mph    
Max Gust Speed 29 mph    
Visibility 4 miles    
Events Fog , Rain , Snow    
T = Trace of Precipitation, MM = Missing Value Source: NWS Daily Summary

Daily Weather History Graph

Daily Weather History Graph

Search for Another Location

Airport:

Trip Planner

Search our weather history database for the weather conditions in past years. The results will help you decide how hot, cold, wet, or windy it might be!

Date:

Astronomy

Apr. 21, 2013 Rise Set
Actual Time 6:12 AM MDT 8:00 PM MDT
Civil Twilight 5:41 AM MDT 8:32 PM MDT
Nautical Twilight 5:03 AM MDT 9:10 PM MDT
Astronomical Twilight 4:22 AM MDT 9:51 PM MDT
Moon 3:39 PM MDT (4/21) 3:47 AM MDT (4/21)
Length of Visible Light 14h 50m
Length of Day
13h 48m
Waxing Gibbous, 80% of the Moon is Illuminated
Apr 21
Waxing Gibbous
Apr 25
Full
May 2
Last Quarter
May 9
New
May 17
First Quarter

Hourly Weather History & Observations

Time (MDT) Temp. Windchill Dew Point Humidity Pressure Visibility Wind Dir Wind Speed Gust Speed Precip Events Conditions
12:53 AM 44.1 °F 37.1 °F 33.1 °F 65% 29.93 in 10.0 mi WNW 15.0 mph - N/A   Overcast
1:53 AM 43.0 °F 35.7 °F 34.0 °F 71% 29.96 in 10.0 mi NW 15.0 mph - N/A   Overcast
2:53 AM 39.9 °F 32.9 °F 35.1 °F 83% 29.97 in 10.0 mi WNW 11.5 mph - N/A   Overcast
3:53 AM 41.0 °F 37.1 °F 33.1 °F 73% 29.99 in 10.0 mi NW 5.8 mph - N/A   Overcast
4:53 AM 39.9 °F - 34.0 °F 79% 30.00 in 10.0 mi Calm Calm - N/A   Overcast
5:53 AM 37.9 °F - 34.0 °F 86% 30.01 in 10.0 mi Calm Calm - N/A   Overcast
6:53 AM 37.9 °F 33.5 °F 34.0 °F 86% 30.04 in 10.0 mi NW 5.8 mph - N/A   Overcast
7:53 AM 39.9 °F 34.5 °F 35.1 °F 83% 30.07 in 10.0 mi NW 8.1 mph - N/A   Mostly Cloudy
8:53 AM 39.9 °F 33.4 °F 36.0 °F 86% 30.09 in 10.0 mi NW 10.4 mph - N/A   Overcast
9:14 AM 39.2 °F 32.5 °F 35.6 °F 87% 30.06 in 10.0 mi NW 10.4 mph - N/A   Overcast
9:23 AM 37.4 °F 28.2 °F 35.6 °F 93% 30.06 in 1.5 mi WNW 16.1 mph - N/A   Overcast
9:27 AM 37.4 °F 27.8 °F 35.6 °F 93% 30.07 in 0.5 mi NW 17.3 mph - N/A Fog Fog
9:36 AM 35.6 °F 27.5 °F 35.6 °F 100% 30.07 in 0.2 mi NW 11.5 mph - 0.00 in Fog , Rain Light Rain
9:44 AM 35.6 °F 27.1 °F 35.6 °F 100% 30.07 in 0.8 mi NW 12.7 mph - 0.01 in Snow Light Snow
9:48 AM 35.6 °F 26.6 °F 35.6 °F 100% 30.07 in 2.0 mi NW 13.8 mph - 0.02 in Snow Light Snow
9:53 AM 36.0 °F 27.1 °F 35.1 °F 97% 30.13 in 5.0 mi NW 13.8 mph - 0.02 in Snow Light Snow
10:51 AM 35.6 °F 25.9 °F 35.6 °F 100% 30.08 in 7.0 mi NNW 16.1 mph - 0.02 in   Overcast
10:53 AM 36.0 °F 27.1 °F 34.0 °F 93% 30.13 in 7.0 mi NNW 13.8 mph - 0.02 in   Overcast
11:18 AM 35.6 °F 27.5 °F 33.8 °F 93% 30.09 in 2.5 mi North 11.5 mph - 0.01 in   Overcast
11:27 AM 35.6 °F 28.0 °F 33.8 °F 93% 30.09 in 4.0 mi North 10.4 mph - 0.01 in   Overcast
11:41 AM 35.6 °F 28.0 °F 33.8 °F 93% 30.09 in 9.0 mi North 10.4 mph - 0.01 in   Overcast
11:53 AM 35.1 °F 27.4 °F 34.0 °F 96% 30.15 in 3.0 mi North 10.4 mph - 0.02 in Snow Light Snow
12:06 PM 35.6 °F 28.0 °F 33.8 °F 93% 30.10 in 2.0 mi North 10.4 mph - 0.00 in Snow Light Snow
12:14 PM 33.8 °F 26.4 °F 33.8 °F 100% 30.09 in 1.5 mi NNE 9.2 mph - 0.01 in Snow Light Snow
12:40 PM 35.6 °F 28.6 °F 33.8 °F 93% 30.09 in 1.5 mi North 9.2 mph - 0.02 in Snow Light Snow
12:45 PM 35.6 °F 27.5 °F 33.8 °F 93% 30.09 in 2.0 mi NNE 11.5 mph - 0.02 in Snow Light Snow
12:53 PM 35.1 °F 27.9 °F 33.1 °F 92% 30.14 in 3.0 mi North 9.2 mph - 0.02 in Snow Light Snow
1:18 PM 35.6 °F 28.6 °F 32.0 °F 87% 30.09 in 2.0 mi North 9.2 mph - 0.01 in Snow Light Snow
1:24 PM 33.8 °F 27.0 °F 30.2 °F 87% 30.09 in 0.8 mi North 8.1 mph - 0.01 in Snow Light Snow
1:29 PM 32.0 °F 24.2 °F 30.2 °F 93% 30.09 in 0.5 mi North 9.2 mph - 0.02 in Fog , Snow Snow
1:36 PM 32.0 °F 24.8 °F 30.2 °F 93% 30.09 in 0.5 mi North 8.1 mph - 0.04 in Fog , Snow Snow
1:41 PM 32.0 °F 24.2 °F 30.2 °F 93% 30.09 in 1.0 mi North 9.2 mph - 0.04 in Snow Light Snow
1:49 PM 32.0 °F 23.0 °F 30.2 °F 93% 30.08 in 0.8 mi North 11.5 mph - 0.04 in Snow Light Snow
1:53 PM 32.0 °F 23.6 °F 30.0 °F 92% 30.15 in 0.8 mi North 10.4 mph - 0.05 in Snow Light Snow
2:01 PM 32.0 °F 23.0 °F 30.2 °F 93% 30.09 in 1.0 mi North 11.5 mph - 0.00 in Snow Light Snow
2:26 PM 32.0 °F 23.6 °F 30.2 °F 93% 30.09 in 3.0 mi North 10.4 mph - 0.01 in Snow Light Snow
2:33 PM 32.0 °F 24.8 °F 30.2 °F 93% 30.09 in 1.8 mi NNE 8.1 mph - 0.01 in Snow Light Snow
2:53 PM 32.0 °F 23.6 °F 30.0 °F 92% 30.16 in 1.8 mi NNE 10.4 mph - 0.02 in Snow Light Snow
3:00 PM 33.8 °F 25.8 °F 30.2 °F 87% 30.08 in 2.0 mi NNE 10.4 mph - 0.00 in Snow Light Snow
3:20 PM 33.8 °F 26.4 °F 30.2 °F 87% 30.09 in 3.0 mi NNE 9.2 mph - 0.00 in Snow Light Snow
3:33 PM 33.8 °F 26.4 °F 30.2 °F 87% 30.08 in 8.0 mi NNE 9.2 mph - 0.00 in   Overcast
3:45 PM 33.8 °F 26.4 °F 30.2 °F 87% 30.08 in 5.0 mi NE 9.2 mph - 0.00 in Snow Light Snow
3:53 PM 33.1 °F 26.1 °F 30.0 °F 89% 30.15 in 4.0 mi NNE 8.1 mph - 0.00 in Snow Light Snow
4:32 PM 33.8 °F 26.4 °F 30.2 °F 87% 30.07 in 8.0 mi NNE 9.2 mph - 0.00 in   Overcast
4:53 PM 33.1 °F 27.7 °F 30.0 °F 89% 30.14 in 7.0 mi NE 5.8 mph - 0.00 in   Overcast
5:01 PM 32.0 °F 25.6 °F 30.2 °F 93% 30.07 in 7.0 mi NNE 6.9 mph - N/A   Overcast
5:53 PM 33.1 °F 28.7 °F 28.9 °F 85% 30.16 in 10.0 mi North 4.6 mph - N/A   Overcast
6:20 PM 32.0 °F 25.6 °F 30.2 °F 93% 30.09 in 2.5 mi NE 6.9 mph - 0.00 in Snow Light Snow
6:29 PM 32.0 °F 24.8 °F 30.2 °F 93% 30.09 in 1.8 mi NE 8.1 mph - 0.00 in Snow Light Snow
6:35 PM 30.2 °F 22.6 °F 28.4 °F 93% 30.09 in 0.8 mi NE 8.1 mph - 0.01 in Snow Light Snow
6:48 PM 30.2 °F 23.4 °F 30.2 °F 100% 30.09 in 2.0 mi NE 6.9 mph - 0.01 in Snow Light Snow
6:49 PM 30.2 °F 22.6 °F 30.2 °F 100% 30.09 in 2.0 mi NE 8.1 mph - 0.01 in Snow Light Snow
6:53 PM 30.9 °F 21.7 °F 30.0 °F 96% 30.17 in 2.5 mi NNE 11.5 mph - 0.01 in Snow Light Snow
6:56 PM 30.2 °F 21.9 °F 28.4 °F 93% 30.08 in 3.0 mi NNE 9.2 mph - 0.00 in Snow Light Snow
7:09 PM 30.2 °F 22.6 °F 28.4 °F 93% 30.08 in 4.0 mi NNE 8.1 mph - 0.00 in Snow Light Snow
7:18 PM 30.2 °F 21.9 °F 28.4 °F 93% 30.08 in 6.0 mi NNE 9.2 mph - 0.00 in Snow Light Snow
7:25 PM 30.2 °F 21.3 °F 28.4 °F 93% 30.08 in 6.0 mi NE 10.4 mph - 0.00 in Snow Light Snow
7:43 PM 30.2 °F 23.4 °F 28.4 °F 93% 30.07 in 10.0 mi NE 6.9 mph - 0.00 in   Overcast
7:53 PM 30.9 °F 23.5 °F 28.9 °F 92% 30.15 in 9.0 mi NNE 8.1 mph - 0.00 in Snow Light Snow
8:06 PM 30.2 °F 20.8 °F 28.4 °F 93% 30.08 in 9.0 mi NNE 11.5 mph - 0.00 in Snow Light Snow
8:27 PM 30.2 °F 20.2 °F 28.4 °F 93% 30.09 in 1.8 mi NNE 12.7 mph - 0.01 in Snow Light Snow
8:47 PM 28.4 °F 17.5 °F 26.6 °F 93% 30.11 in 0.5 mi NNE 13.8 mph - 0.03 in Fog , Snow Snow
8:53 PM 28.9 °F 17.7 °F 27.0 °F 92% 30.18 in 0.5 mi NNE 15.0 mph - 0.05 in Fog , Snow Snow
9:01 PM 28.4 °F 17.5 °F 26.6 °F 93% 30.11 in 0.2 mi North 13.8 mph - 0.01 in Fog , Snow Heavy Snow
9:31 PM 28.4 °F 19.1 °F 26.6 °F 93% 30.14 in 0.5 mi North 10.4 mph - 0.10 in Fog , Snow Snow
9:34 PM 28.4 °F 19.7 °F 26.6 °F 93% 30.14 in 0.8 mi North 9.2 mph - 0.11 in Snow Light Snow
9:43 PM 28.4 °F 21.2 °F 26.6 °F 93% 30.13 in 1.2 mi North 6.9 mph - 0.11 in Snow Light Snow
9:53 PM 28.0 °F 21.7 °F 27.0 °F 96% 30.24 in 0.8 mi NNW 5.8 mph - 0.12 in Snow Light Snow
10:03 PM 28.4 °F 22.2 °F 26.6 °F 93% 30.15 in 0.5 mi NNW 5.8 mph - 0.03 in Fog , Snow Snow
10:11 PM 28.4 °F 19.7 °F 26.6 °F 93% 30.15 in 0.5 mi NNW 9.2 mph - 0.05 in Fog , Snow Snow
10:26 PM 28.4 °F 20.4 °F 26.6 °F 93% 30.15 in 0.2 mi NW 8.1 mph - 0.09 in Fog , Snow Heavy Snow
10:51 PM 26.6 °F 20.0 °F 26.6 °F 100% 30.15 in 0.5 mi NW 5.8 mph - 0.18 in Fog , Snow Snow
10:53 PM 27.0 °F 20.5 °F 26.1 °F 96% 30.25 in 0.5 mi NW 5.8 mph - 0.18 in Fog , Snow Snow
11:14 PM 26.6 °F 19.1 °F 26.6 °F 100% 30.15 in 0.5 mi NW 6.9 mph - 0.06 in Fog , Snow Snow
11:27 PM 26.6 °F 17.5 °F 26.6 °F 100% 30.15 in 0.5 mi NNW 9.2 mph - 0.09 in Fog , Snow Snow
11:53 PM 27.0 °F 20.5 °F 26.1 °F 96% 30.26 in 0.8 mi North 5.8 mph - 0.15 in Snow Light Snow